Track STARLINK-3980 now! 10-day predictions STARLINK-3980 is classified as:
1 52611U 22052P 22227.91667824 .00019162 00000-0 12189-2 0 9996 2 52611 53.2159 8.0017 0001619 49.9845 241.1691 15.08835557 1309